Simultaneous Nadir Overpasses (SNOs) Predictions

Prediction of SNOs between GOES-17 and NOAA-19 Satellite Orbit:

Table of predicted SNOs for the next 14.0 days since TLE Epoch: 4/3/2020
Index Date Time (GOES-17) GOES-17 Lat,Lon NOAA-19 Lat,Lon Distance(km) Time Diff (sec)
1 04/05/2020 03:09:14 -0.01,-137.18 -0.91,-141.15 452.65 80
2 04/06/2020 02:57:33 -0.01,-137.17 -0.27,-138.29 127.96 80
3 04/07/2020 02:43:13 -0.01,-137.17 0.36,-135.44 196.64 80
4 04/09/2020 15:06:57 0.01,-137.17 0.75,-140.42 371.51 80
5 04/10/2020 14:55:16 0.01,-137.15 0.11,-137.57 47.50 80
6 04/11/2020 14:40:56 0.00,-137.14 -0.54,-134.71 276.34 80
7 04/14/2020 03:04:36 -0.01,-137.07 -0.62,-139.68 298.28 80
8 04/15/2020 02:50:17 -0.01,-137.05 0.02,-136.82 25.30 79
9 04/16/2020 02:38:36 -0.01,-137.03 0.72,-133.98 348.48 80




NCC Satellite Simultaneous Nadir Overpasses (SNOs) Prediction Service
